Tracking 19419 objects as of 17-Dec-2018
HD Live streaming from Space Station
objects crossing your sky now

IRIDIUM 148

Track IRIDIUM 148 now!
10-day predictions
IRIDIUM 148 is classified as:


NORAD ID: 43255
Int'l Code: 2018-030I
Perigee: 783.0 km
Apogee: 786.6 km
Inclination: 86.4 °
Period: 100.4 minutes
Semi major axis: 7155 km
RCS: Unknown
Launch date: March 30, 2018
Source: United States (US)
Launch site: AIR FORCE WESTERN TEST RANGE (AFWTR)
aabbcc
Your satellite tracking list
Your tracking list is empty




NASA's NSSDC Master Catalog

Two Line Element Set (TLE):
1 43255U 18030G   18350.95999174 +.00000073 +00000-0 +18950-4 0  9998
2 43255 086.3959 355.1643 0002448 094.5511 265.5964 14.34219310037556
Source of the keplerian elements: AFSPC